TimeAKST,TemperatureF,Dew PointF,Humidity,Sea Level PressureIn,VisibilityMPH,Wind Direction,Wind SpeedMPH,Gust SpeedMPH,PrecipitationIn,Events,Conditions,WindDirDegrees,DateUTC
12:51 AM,30.2,26.6,86,29.32,2.0,NNE,12.7,-,0.06,Snow,Light Snow,20,2012-12-24 09:51:00
12:53 AM,30.0,26.1,85,29.32,2.5,NNE,11.5,-,0.06,Snow,Light Snow,20,2012-12-24 09:53:00
1:04 AM,30.2,26.6,86,29.31,0.8,North,10.4,-,0.00,Snow,Light Snow,10,2012-12-24 10:04:00
1:12 AM,30.2,26.6,86,29.31,0.5,North,11.5,-,0.01,Fog-Snow,Snow,10,2012-12-24 10:12:00
1:24 AM,30.2,26.6,86,29.31,1.0,North,12.7,-,0.01,Snow,Light Snow,10,2012-12-24 10:24:00
1:48 AM,30.2,26.6,86,29.31,0.8,NNE,16.1,21.9,0.02,Snow,Light Snow,20,2012-12-24 10:48:00
1:53 AM,30.0,27.0,88,29.31,1.0,NNE,10.4,21.9,0.02,Snow,Light Snow,20,2012-12-24 10:53:00
2:36 AM,30.2,26.6,86,29.28,2.5,NNE,15.0,21.9,0.01,Snow,Light Snow,20,2012-12-24 11:36:00
2:43 AM,30.2,26.6,86,29.28,4.0,NNE,12.7,21.9,0.01,Snow,Light Snow,20,2012-12-24 11:43:00
2:50 AM,30.2,26.6,86,29.27,1.8,North,13.8,19.6,0.01,Snow,Light Snow,10,2012-12-24 11:50:00
3:08 AM,30.2,26.6,86,29.27,0.8,North,10.4,20.7,0.01,Snow,Light Snow,10,2012-12-24 12:08:00
3:34 AM,30.2,26.6,86,29.27,0.5,NNE,11.5,-,0.03,Fog-Snow,Snow,20,2012-12-24 12:34:00
3:53 AM,28.9,27.0,92,29.26,0.2,NNE,11.5,-,0.07,Fog-Snow,Heavy Snow,30,2012-12-24 12:53:00
4:00 AM,28.4,26.6,93,29.26,0.2,NNE,11.5,-,0.02,Fog-Snow,Heavy Snow,30,2012-12-24 13:00:00
4:29 AM,28.4,26.6,93,29.26,0.5,Calm,Calm,-,0.09,Fog-Snow,Snow,0,2012-12-24 13:29:00
4:38 AM,28.4,26.6,93,29.26,0.5,NNE,4.6,-,0.10,Fog-Snow,Snow,30,2012-12-24 13:38:00
4:42 AM,28.4,26.6,93,29.25,0.2,NNE,5.8,-,0.11,Fog-Snow,Heavy Snow,20,2012-12-24 13:42:00
4:50 AM,28.4,26.6,93,29.24,0.5,North,5.8,-,0.13,Fog-Snow,Snow,10,2012-12-24 13:50:00
4:53 AM,28.9,27.0,92,29.25,0.5,NNE,6.9,-,0.13,Fog-Snow,Snow,20,2012-12-24 13:53:00
5:13 AM,30.2,26.6,86,29.24,1.0,NNE,5.8,-,0.01,Snow,Light Snow,20,2012-12-24 14:13:00
5:37 AM,30.2,26.6,86,29.23,1.5,Calm,Calm,-,0.02,Snow,Light Snow,0,2012-12-24 14:37:00
5:53 AM,28.9,27.0,92,29.23,1.0,South,4.6,-,0.02,Snow,Light Snow,190,2012-12-24 14:53:00
5:59 AM,28.4,26.6,93,29.23,0.8,Calm,Calm,-,0.01,Snow,Light Snow,0,2012-12-24 14:59:00
6:14 AM,28.4,26.6,93,29.25,0.5,South,3.5,-,0.03,Fog-Snow,Snow,180,2012-12-24 15:14:00
6:33 AM,28.4,28.4,100,29.25,0.8,Calm,Calm,-,0.03,Snow,Light Snow,0,2012-12-24 15:33:00
6:41 AM,28.4,28.4,100,29.26,1.8,Calm,Calm,-,0.03,Snow,Light Snow,0,2012-12-24 15:41:00
6:53 AM,28.9,28.0,96,29.26,1.0,NNE,3.5,-,0.03,Snow,Light Snow,30,2012-12-24 15:53:00